Weather in Korçë

Albania     40˚37′07″N   20˚46′38″E
temp.,
°C
wind,
m/s
gust,
m/s
humid.,
%
clouds,
%
prec.,
mm/h
press.,
hPa
HPBL,
m
16 january, sat
sat1601:00−7˚ne239696 1.6 1013138
04:00−8˚ene3397100 0.6 101288
07:00−7˚ene3496100 1.3 1012172
10:00−7˚ene3494100 0.4 1013386
13:00−6˚ne3491100 0.6 1011512
16:00−8˚ne3397100 0.3 1013124
19:00−11˚ene229794 0.3 101521
22:00−14˚ne229356 0.0 101723
17 january, sun
sun1701:00−15˚n228928 0.0 101822
04:00−15˚n12820 0.0 101820
07:00−16˚n11810 0.0 101920
10:00−9˚nw11754 0.0 1019122
13:00−7˚w23722 0.0 1017390
16:00−8˚sw338059 0.0 101732
19:00−9˚sw337780 0.0 101831
22:00−9˚sw3375100 0.0 101835
18 january, mon
mon1801:00−10˚ne1174100 0.0 101821
04:00−13˚ene227984 0.0 101822
07:00−14˚ene338744 0.0 102027
10:00−9˚ene448311 0.0 1021371
13:00−8˚ene34835 0.0 1021512
16:00−10˚ene239230 0.0 102235
19:00−14˚e118715 0.0 102520
22:00−14˚e11800 0.0 102621
19 january, tue
tue1901:00−14˚ese11760 0.0 102621
04:00−14˚nne01750 0.0 102621
07:00−14˚nne01740 0.0 102721
10:00−7˚n22804 0.0 1028107
13:00−4˚n12672 0.0 1026181
16:00−7˚nnw11780 0.0 102721
19:00−9˚nw11690 0.0 102921
22:00−10˚wnw11640 0.0 103021
20 january, wed
wed2001:00−9˚wsw12580 0.0 103021
04:00−9˚wsw22560 0.0 103021
07:00−8˚sw23590 0.0 103121
10:00−3˚wsw23730 0.0 1030104
13:00−1˚wsw34830 0.0 1029239
16:00−3˚sw33790 0.0 102939
19:00−6˚sw34830 0.0 103035
22:00−6˚sw34810 0.0 103037